Regional Weather Roundup
Issued by NWS

Home | Current Version | Previous Version | Graphics & Text | Print | Product List | Glossary On
Versions: 1 2 3 4 5 6 7 8 9 10 11 12 13 14 15 16 17 18 19 20 21 22 23 24 25 26 27 28 29 30 31 32 33 34 35 36 37 38 39 40 41 42 43 44 45 46 47 48 49 50
000
ASUS43 KMKX 260400
RWRWI

WISCONSIN REGIONAL WEATHER ROUNDUP
NATIONAL WEATHER SERVICE MILWAUKEE/SULLIVAN WI
1100 PM CDT WED MAY 25 2016

NOTE: "FAIR" INDICATES FEW OR NO CLOUDS BELOW 12,000 FEET WITH NO
SIGNIFICANT WEATHER AND/OR OBSTRUCTIONS TO VISIBILITY.

WIZ001-002-006>008-014>016-023>028-260500-
NORTHWEST WISCONSIN

CITY           SKY/WX    TMP DP  RH WIND       PRES   REMARKS
SUPERIOR ARPT  CLOUDY    44  43  97 NE12      29.88F
ASHLAND        CLOUDY    48  48 100 N5        29.88F
HAYWARD        PTCLDY    53  52  96 N3        29.86S
SIREN          CLOUDY    58  57  96 SE6       29.85F
CUMBERLAND     CLOUDY    59  57  94 CALM      29.86S
RICE LAKE      CLEAR     60  58  92 CALM      29.88R
CHETEK         FOG       58  58 100 CALM      29.86S VSB 1/4
LADYSMITH      MOCLDY    60  59  96 N6        29.87S
EAU CLAIRE     FOG       60  60 100 CALM      29.85R VSB 1/2
MENOMONIE      FOG       63  63 100 CALM      29.86R VSB 3/4
NEW RICHMOND   CLOUDY    63  63  98 E7        29.86R
OSCEOLA        CLOUDY    64  64 100 E7        29.87R
$$

WIZ003>005-009-010-017-018-260500-
NORTH CENTRAL WISCONSIN

CITY           SKY/WX    TMP DP  RH WIND       PRES   REMARKS
MANITOWISH WTR NOT AVBL
ARBOR VITAE    LGT RAIN  62  60  94 SE8       29.87S
WOODRUFF       LGT RAIN  62  60  94 SE8       29.87S
RHINELANDER    CLOUDY    60  58  92 VRB3      29.87F
EAGLE RIVER    RAIN      59  58  97 SE9G20    29.88S
LAND O LAKES   RAIN      60  59  97 E9        29.90F
PHILLIPS       CLOUDY    61  61 100 CALM      29.84F
TOMAHAWK       CLOUDY    61  59  96 S5        29.86S
MEDFORD        CLOUDY    63  63 100 SW7       29.87S
MERRILL        CLOUDY   N/A N/A N/A S5        29.88S
$$

WIZ029-030-035-036-043>047-260500-
CENTRAL WISCONSIN

CITY           SKY/WX    TMP DP  RH WIND       PRES   REMARKS
WAUSAU         CLOUDY    64  32  30 SW7       29.87R
MOSINEE        CLOUDY    61  61 100 SE9       29.89R
MARSHFIELD     CLOUDY    64  61  90 S6        29.87S FOG
STEVENS POINT  MOCLDY    60  59  98 S5        29.89S FOG
WAUPACA        CLOUDY    63  63  98 SE6       29.90S FOG
WAUTOMA        NOT AVBL
WISC RAPIDS    CLOUDY    63  60  90 CALM      29.88F
CAMP DOUGLAS   NOT AVBL
$$

WIZ011>013-019>022-031-037>040-048>050-260500-
NORTHEAST WISCONSIN

CITY           SKY/WX    TMP DP  RH WIND       PRES   REMARKS
ANTIGO         CLOUDY    58  58 100 SE9       29.90R
SHAWANO        CLOUDY    61  59  94 E6        29.91S
OCONTO         CLOUDY   N/A N/A N/A SE3       29.91F
STURGEON BAY   NOT AVBL
GREEN BAY      CLOUDY    61  59  93 E5        29.89F FOG
MANITOWOC      NOT AVBL
APPLETON       LGT RAIN  61  61 100 E3        29.90R
CLINTONVILLE   CLOUDY    61  59  94 SE5       29.89F FOG
OSHKOSH        CLOUDY    61  59  93 CALM      29.89F FOG
$$

WIZ032>034-041-042-053>061-260500-
SOUTHWEST WISCONSIN

CITY           SKY/WX    TMP DP  RH WIND       PRES   REMARKS
LA CROSSE      CLEAR     67  64  90 SE5       29.84R
SPARTA         CLEAR     64  64  99 CALM      29.87S
VIROQUA        CLEAR     69  61  75 S5        29.89R
BOSCOBEL       CLEAR     64  62  93 CALM      29.87S
PRAIRIE DU CHI PTCLDY    67  60  78 CALM      29.86S
PLATTEVILLE    PTCLDY    70  58  66 S5        29.90S
$$

WIZ056-057-062-063-064-067-068-260500-
SOUTH CENTRAL WISCONSIN

CITY           SKY/WX    TMP DP  RH WIND       PRES   REMARKS
REEDSBURG      PTCLDY    65  65 100 CALM      29.88S
BARABOO/DELLS  PTCLDY    65  63  91 CALM      29.89S
LONE ROCK      NOT AVBL
MINERAL POINT  PTCLDY    72  57  60 SW7       29.90S
MADISON        MOCLDY    69  63  81 S7        29.89S
MIDDLETON      MOCLDY    71  64  77 SW7       29.90S
WATERTOWN      PTCLDY    66  66 100 SE5       29.90S
MONROE         CLEAR     66  63  88 S7        29.91S
JANESVILLE     CLEAR     68  64  88 S8        29.90
$$

WIZ051-052-058>065-066-070>072-260500-
SOUTHEAST WISCONSIN

CITY           SKY/WX    TMP DP  RH WIND       PRES   REMARKS
MILWAUKEE      CLOUDY    59  57  93 SE7       29.93R
WAUKESHA       MOCLDY    59  59 100 SE5       29.94R FOG
MILWAUKEE/TIMM CLOUDY    55  54  94 CALM      29.94R FOG
RACINE         CLOUDY    63  60  90 S12       29.94S
BURLINGTON     PTCLDY    63  62  97 SW3       29.92S
KENOSHA        CLOUDY    66  63  90 S8        29.93S
FOND DU LAC    CLOUDY    62  61  96 CALM      29.89F FOG
SHEBOYGAN      CLOUDY    56  55  97 NE3       29.91F FOG
WEST BEND      CLOUDY    59  55  88 S5        29.91F FOG
JUNEAU         MOCLDY    63  61  94 SE9       29.91F FOG
$$

LSZ147-162-260500-
LAKE SUPERIOR

STATION/POSITION TIME  TEMP    WIND        PRES    WAVE
                       AIR SEA DIR/SP/G            HT/PER
                 (UTC) (F)     (DEG/KT/KT) (MB)    (FT/S)
W MID LAKE BUOY  0250   40 38   60/ 10/ 12 1014.8R   3/ 5
DEVILS ISLAND    0300   44      80/ 19/ 21 1013.4F
PORT WING        0240   43      70/  4/ 16 1011.9
SAXON HARBOR     0300   47      70/  6/ 12 1012.2F
$$

LMZ867-665-643>646-260500-
LAKE MICHIGAN

STATION/POSITION TIME  TEMP    WIND        PRES    WAVE
                       AIR SEA DIR/SP/G            HT/PER
                 (UTC) (F)     (DEG/KT/KT) (MB)    (FT/S)
CHAMBERS ISLAND  0300   56      CALM  /  3 1013.2
N MID LAKE BUOY  0250   51 45  120/ 10/ 10 1013.0F   1
NORTHPORT PIER   0300   54     150/  4/  5 1013.2S
SISTER BAY       0334   55     160/  6/  7   N/A
ALGOMA LAKESHORE 0317             CALM       N/A
KEWAUNEE LAKESHO 0300   55                   N/A
SHEBOYGAN LAKESH 0300   53     360/  7/  8 1014.5R
PORT WASHINGTON  0300   55      20/  2/  4 1014.2F
S MID LAKE BUOY  0250   57 50  170/ 14/ 16 1014.1R   1/ 3
KENOSHA   LAKESH 0300   60     180/ 12/ 21 1013.5R
$$

TC  - TEMPERATURE IN CELSIUS
VSB - VISIBILITY IN STATUTE MILES
WCI - WIND CHILL INDEX
HX  - HEAT INDEX





USA.gov is the U.S. government's official web portal to all federal, state and local government web resources and services.